Frederick, OK

3:51 PM CDT on August 30, 2016 (GMT -0500)
Frederick Municipal

Weather History for KFDR - October, 2012

Change the Weather History Date:

Saturday, October 20, 2012

  Actual Average (KLTS) Record (KLTS)
Temperature  
Mean Temperature 68 °F -  
Max Temperature 88 °F 72 °F 95 °F (2007)
Min Temperature 48 °F 48 °F 33 °F (1999)
Cooling Degree Days 2    
Growing Degree Days 18 (Base 50)    
Moisture  
Dew Point 44 °F    
Average Humidity 46    
Maximum Humidity 70    
Minimum Humidity 22    
Precipitation  
Precipitation 0.00 in - - ()
Sea Level Pressure  
Sea Level Pressure 29.69 in    
Wind  
Wind Speed 8 mph (South)    
Max Wind Speed 15 mph    
Max Gust Speed 24 mph    
Visibility 10 miles    
Events      
Averages and records for this station are not official NWS values.
T = Trace of Precipitation, MM = Missing Value Source: NWS Daily Summary

Daily Weather History Graph

Daily Weather History Graph

Search for Another Location

Airport or City:

Trip Planner

Search our weather history database for the weather conditions in past years. The results will help you decide how hot, cold, wet, or windy it might be!

Date:

Astronomy

Oct. 20, 2012 Rise Set
Actual Time 7:45 AM CDT 6:54 PM CDT
Civil Twilight 7:20 AM CDT 7:20 PM CDT
Nautical Twilight 6:51 AM CDT 7:49 PM CDT
Astronomical Twilight 6:21 AM CDT 8:18 PM CDT
Moon 1:15 PM CDT (10/20) 11:49 PM CDT (10/20)
Length of Visible Light 11h 59m
Length of Day
11h 08m
Waxing Crescent, 34% of the Moon is Illuminated
Oct 20
Waxing Crescent
Oct 21
First Quarter
Oct 29
Full
Nov 6
Last Quarter
Nov 13
New

Hourly Weather History & Observations

Time (CDT) Temp. Heat Index Dew Point Humidity Pressure Visibility Wind Dir Wind Speed Gust Speed Precip Events Conditions
12:53 AM 55.9 °F - 36.0 °F 47% 29.80 in 10.0 mi SSE 6.9 mph - N/A   Clear
1:53 AM 53.1 °F - 35.1 °F 50% 29.80 in 10.0 mi South 6.9 mph - N/A   Clear
2:53 AM 52.0 °F - 35.1 °F 53% 29.77 in 10.0 mi North - - N/A   Clear
3:53 AM 52.0 °F - 36.0 °F 54% 29.75 in 10.0 mi South 6.9 mph - N/A   Clear
4:53 AM 53.1 °F - 37.0 °F 55% 29.74 in 10.0 mi South 8.1 mph - N/A   Clear
5:53 AM 53.1 °F - 37.0 °F 55% 29.74 in 10.0 mi South 6.9 mph - N/A   Clear
6:53 AM 52.0 °F - 37.0 °F 57% 29.74 in 10.0 mi SE 5.8 mph - N/A   Clear
7:53 AM 48.9 °F - 37.9 °F 66% 29.75 in 10.0 mi ESE 8.1 mph - N/A   Clear
8:53 AM 55.9 °F - 41.0 °F 57% 29.75 in 10.0 mi SSE 8.1 mph - N/A   Clear
9:53 AM 63.0 °F - 45.0 °F 52% 29.74 in 10.0 mi South 12.7 mph - N/A   Clear
10:53 AM 72.0 °F - 51.1 °F 48% 29.72 in 10.0 mi South 13.8 mph - N/A   Clear
11:53 AM 75.9 °F - 53.1 °F 45% 29.70 in 10.0 mi SSW 12.7 mph - N/A   Clear
12:53 PM 80.1 °F 79.9 °F 53.1 °F 39% 29.69 in 10.0 mi SSW 15.0 mph 24.2 mph N/A   Clear
1:53 PM 82.0 °F - 51.1 °F 34% 29.65 in 10.0 mi South 13.8 mph 24.2 mph N/A   Clear
2:53 PM 84.9 °F - 48.0 °F 28% 29.62 in 10.0 mi SSW 11.5 mph 18.4 mph N/A   Clear
3:53 PM 86.0 °F - 43.0 °F 22% 29.61 in 10.0 mi South 11.5 mph - N/A   Clear
4:53 PM 87.1 °F - 44.1 °F 22% 29.61 in 10.0 mi SW 9.2 mph - N/A   Clear
5:53 PM 86.0 °F - 43.0 °F 22% 29.60 in 10.0 mi Calm Calm - N/A   Clear
6:53 PM 80.1 °F - 44.1 °F 28% 29.61 in 10.0 mi NNE 4.6 mph - N/A   Clear
7:53 PM 75.9 °F - 44.1 °F 32% 29.62 in 10.0 mi NNE 5.8 mph - N/A   Clear
8:53 PM 71.1 °F - 46.9 °F 42% 29.62 in 10.0 mi East 6.9 mph - N/A   Clear
9:53 PM 66.9 °F - 52.0 °F 59% 29.62 in 10.0 mi SE 8.1 mph - N/A   Clear
10:53 PM 64.9 °F - 54.0 °F 68% 29.63 in 10.0 mi SSE 6.9 mph - N/A   Clear
11:53 PM 64.0 °F - 54.0 °F 70% 29.64 in 10.0 mi South 5.8 mph - N/A   Clear